Location: Unspecified
(0.0000°N, 0.0000°E)
Time: 07:02:33
(UTC+00:00)

Courier 1B - Pass Details

Date: 01 October 2023
Orbit: 962 x 1208 km, 28.3° (Epoch: 06 December)

Event Time Altitude Azimuth Distance (km) Brightness Sun altitude
Rises 06:14:08 0° 227° (SW) 3,655 10.1 6.1°
Reaches altitude 10° 06:16:54 10° 220° (SW) 2,725 9.5 6.8°
Maximum altitude 06:23:06 43° 150° (SSE) 1,387 8.8 8.3°
Drops below altitude 10° 06:29:37 10° 80° (E) 2,860 12.1 9.9°
Sets 06:32:33 0° 74° (ENE) 3,853 12.2 10.7°
